El Centro, CA

6:48 AM PDT on May 28, 2017 (GMT -0700)
El Centro Naval Air Facility

Weather History for KNJK - December, 2013

Change the Weather History Date:

Monday, December 30, 2013

  Actual Average Record
Temperature  
Mean Temperature 56 °F -  
Max Temperature 73 °F 66 °F 73 °F (2011)
Min Temperature 39 °F 45 °F 30 °F (2014)
Degree Days  
Heating Degree Days 9    
Growing Degree Days 6 (Base 50)    
Moisture  
Dew Point 15 °F    
Average Humidity 25    
Maximum Humidity 40    
Minimum Humidity 8    
Precipitation  
Precipitation 0.00 in - - ()
Sea Level Pressure  
Sea Level Pressure 30.26 in    
Wind  
Wind Speed 7 mph (WSW)    
Max Wind Speed 13 mph    
Max Gust Speed -    
Visibility 10 miles    
Events      
Averages and records for this station are not official NWS values.
T = Trace of Precipitation, MM = Missing Value Source: NWS Daily Summary

Daily Weather History Graph

Daily Weather History Graph

Search for Another Location

Airport or City:

Trip Planner

Search our weather history database for the weather conditions in past years. The results will help you decide how hot, cold, wet, or windy it might be!

Date:

Astronomy

Dec. 30, 2013 Rise Set
Actual Time 6:44 AM PST 4:46 PM PST
Civil Twilight 6:17 AM PST 5:13 PM PST
Nautical Twilight 5:46 AM PST 5:44 PM PST
Astronomical Twilight 5:16 AM PST 6:14 PM PST
Moon 4:41 AM PST (12/30) 3:21 PM PST (12/30)
Length of Visible Light 10h 55m
Length of Day
10h 01m
Waning Crescent, 4% of the Moon is Illuminated
Dec 30
Waning Crescent
Jan 1
New
Jan 7
First Quarter
Jan 15
Full
Jan 23
Last Quarter

Hourly Weather History & Observations

Time (PST) Temp. Windchill Dew Point Humidity Pressure Visibility Wind Dir Wind Speed Gust Speed Precip Events Conditions
12:56 AM 42.1 °F 36.1 °F 19.0 °F 40% 30.23 in 10.0 mi SW 10.4 mph - N/A   Clear
1:56 AM 43.0 °F 37.7 °F 12.9 °F 30% 30.24 in 10.0 mi West 9.2 mph - N/A   Clear
2:56 AM 39.9 °F 33.9 °F 12.9 °F 33% 30.25 in 10.0 mi West 9.2 mph - N/A   Clear
3:56 AM 39.0 °F 33.4 °F 14.0 °F 36% 30.25 in 10.0 mi WSW 8.1 mph - N/A   Clear
4:56 AM 39.9 °F 33.4 °F 14.0 °F 35% 30.25 in 10.0 mi West 10.4 mph - N/A   Clear
5:56 AM 41.0 °F 34.3 °F 10.0 °F 28% 30.27 in 10.0 mi WSW 11.5 mph - N/A   Clear
6:56 AM 45.0 °F 38.9 °F 9.0 °F 23% 30.29 in 10.0 mi WSW 12.7 mph - N/A   Clear
7:56 AM 46.0 °F 42.5 °F 12.0 °F 25% 30.30 in 10.0 mi WSW 6.9 mph - N/A   Clear
8:56 AM 54.0 °F - 15.1 °F 22% 30.32 in 10.0 mi WNW 3.5 mph - N/A   Clear
9:56 AM 62.1 °F - 15.1 °F 16% 30.32 in 10.0 mi Calm Calm - N/A   Partly Cloudy
10:56 AM 66.9 °F - 12.9 °F 12% 30.31 in 10.0 mi NNW 4.6 mph - N/A   Partly Cloudy
11:56 AM 68.0 °F - 10.0 °F 11% 30.27 in 10.0 mi South 3.5 mph - N/A   Partly Cloudy
12:56 PM 71.1 °F - 10.0 °F 9% 30.24 in 10.0 mi Calm Calm - N/A   Partly Cloudy
1:56 PM 73.0 °F - 7.0 °F 8% 30.22 in 10.0 mi Calm Calm - N/A   Partly Cloudy
2:56 PM 72.0 °F - 7.0 °F 8% 30.22 in 10.0 mi Calm Calm - N/A   Partly Cloudy
3:56 PM 70.0 °F - 18.0 °F 14% 30.21 in 10.0 mi ESE 4.6 mph - N/A   Partly Cloudy
4:56 PM 64.9 °F - 24.1 °F 21% 30.22 in 10.0 mi South 3.5 mph - N/A   Partly Cloudy
5:56 PM 59.0 °F - 24.1 °F 26% 30.23 in 10.0 mi SE 5.8 mph - N/A   Partly Cloudy
6:56 PM 52.0 °F - 24.1 °F 34% 30.25 in 10.0 mi Calm Calm - N/A   Partly Cloudy
7:56 PM 46.9 °F - 18.0 °F 32% 30.26 in 10.0 mi West 3.5 mph - N/A   Partly Cloudy
8:56 PM 46.9 °F - 21.9 °F 37% 30.27 in 10.0 mi West 5.8 mph - N/A   Partly Cloudy
9:56 PM 44.1 °F 40.1 °F 18.0 °F 35% 30.27 in 10.0 mi WSW 6.9 mph - N/A   Partly Cloudy
10:56 PM 44.1 °F 39.5 °F 16.0 °F 32% 30.26 in 10.0 mi West 8.1 mph - N/A   Clear
11:56 PM 39.9 °F 37.8 °F 16.0 °F 38% 30.26 in 10.0 mi West 3.5 mph - N/A   Clear